Regional Weather Roundup
Issued by NWS Wakefield, VA

Home | Current Version | Previous Version | Text Only | Print | Product List | Glossary Off
Versions: 1 2 3 4 5 6 7 8 9 10 11 12 13 14 15 16 17 18 19 20 21 22 23 24 25 26 27 28 29 30 31 32 33 34 35 36 37 38 39 40 41 42 43 44 45 46 47 48 49 50

983
ASUS41 KAKQ 271815
RWRAKQ

REGIONAL WEATHER ROUNDUP
NATIONAL WEATHER SERVICE WAKEFIELD VA
200 PM EDT SAT AUG 27 2016

Note: "fair" indicates few or no clouds below 12,000 feet with no
significant weather and/or obstructions to visibility. * = Denotes
station may not report precipitation (e.g., rain,snow,etc.),
thunder or fog.

VAZ042-051-052>054-056-271900-
NORTHERN VIRGINIA

CITY           SKY/WX    TMP DP  RH WIND       PRES   REMARKS
WASH NATIONAL  MOSUNNY   91  66  43 VRB3      30.17S
DULLES         MOSUNNY   90  63  40 E5        30.17F
FORT BELVOIR   SUNNY     89  64  43 VRB7      30.16F
QUANTICO       SUNNY     90  64  42 E7        30.17S
FREDERICKSBRG*   N/A     90  66  45 E8        30.16S
STAFFORD*      SUNNY     90  61  37 NE9       30.21S
WARRENTON      SUNNY     91  61  36 E8        30.17S
CULPEPER*      PTSUNNY   90  70  51 SE3       30.18S HX  96
MANASSAS*      NOT AVBL
LEESBURG*      MOSUNNY   91  68  46 NE6       30.19S HX  95
WINCHESTER     PTSUNNY   88  68  51 SE7       30.19S
FRONT ROYAL*   FAIR      86  70  58 SE6       30.18S
LURAY*         CLOUDY    88  66  48 E3        30.19S
$$

VAZ048-049-060>072-079>083-271900-
CENTRAL AND SOUTH CENTRAL VIRGINIA

CITY           SKY/WX    TMP DP  RH WIND       PRES   REMARKS
RICHMOND       MOSUNNY   93  62  35 NE10      30.14F
CHESTERFIELD*  FAIR      93  61  33 NE7       30.15F
PETERSBURG*    SUNNY     95  63  34 NE10      30.14S HX  97
HANOVER        SUNNY     91  63  39 VRB7      30.17F
TAPPAHANNOCK*  SUNNY     91  62  38 NE9       30.16F
QUINTON*       FAIR      92  64  39 N5        30.14F
CHARLOTTSVILLE PTSUNNY   91  68  46 SE6       30.18S HX  95
GORDONSVILLE*  FAIR      90  72  55 SE5       30.17S HX  96
ORANGE*          N/A     90  64  43 CALM      30.20R
LOUISA*        PTSUNNY   91  72  52 E6        30.16F HX  98
BUMPASS*       FAIR      89  69  50 NE5       30.17S
FARMVILLE*     NOT AVBL
CREWE*         FAIR      92  70  48 CALM      30.14F HX  98
FORT PICKETT*  NOT AVBL
CHASE CITY*    FAIR      94  69  44 E5        30.12F HX  99
CLARKSVILLE*   FAIR      93  73  52 E6        30.12S HX 102
SOUTH HILL*    MOSUNNY   92  73  54 NE6       30.18F HX 101
LAWRENCEVILLE* FAIR      92  73  52 NE5       30.12F HX 101
EMPORIA*       MOSUNNY   93  70  46 N7        30.13F HX  99
$$

VAZ088>098-271900-
SOUTHEAST VIRGINIA

CITY           SKY/WX    TMP DP  RH WIND       PRES   REMARKS
NORFOLK        SUNNY     85  75  72 NE13      30.13S
VIRGINIA BEACH MOSUNNY   92  74  55 NE9G18    30.13R HX 101
NORFOLK NAVAL  MOSUNNY   89  73  59 NE10      30.15S HX  97
WEST POINT*    SUNNY     91  62  36 NE8       30.16S
SALUDA*        FAIR      86  71  59 NE9       30.15S
NEWPORT NEWS   SUNNY     89  73  59 E14       30.14S HX  97
LANGLEY AFB    SUNNY     88  74  62 NE12      30.13S HX  97
FORT EUSTIS    SUNNY     94  71  46 VRB7      30.11F HX 100
WILLIAMSBURG*  SUNNY     97  66  36 CALM      30.14S HX 100
HR EXEC AP*    FAIR      93  72  49 NE10      30.15S HX 100
FRANKLIN*      PTSUNNY   92  68  45 NE7       30.13S HX  97
US460-WAKEFLD  SUNNY     92  64  39 VRB7      30.13S
$$

VAZ020-022-025-037-045-271900-
WEST CENTRAL AND SOUTHWEST VIRGINIA

CITY           SKY/WX    TMP DP  RH WIND       PRES   REMARKS
STAUNTON*      MOSUNNY   87  68  52 CALM      30.23S
WAYNESBORO*    FAIR      86  67  54 SE7       30.22S
HOT SPRINGS VA PTSUNNY   79  67  66 SE6       30.34F
LYNCHBURG      MOSUNNY   87  72  60 E7        30.18F
DANVILLE       CLOUDY    91  73  55 NE5       30.13F HX  99
SOUTH BOSTON*  MOCLDY    95  71  46 E9        30.12F HX 102
MARTINSVILLE   CLOUDY    89  73  60 CALM      30.18F HX  96
ROANOKE        PTSUNNY   88  72  58 S9        30.19F
BLACKSBURG     PTSUNNY   87  73  63 E7        30.27S
DUBLIN*        CLOUDY    86  73  65 NE7       30.24F
MARION*        MOSUNNY   88  68  51 SE5       30.27F
HILLSVILLE*    PTSUNNY   83  72  69 SE5       30.26S
RICHLANDS*     FAIR      86  70  57 SE7       30.25S
WISE*          SUNNY     88  46  23 SE6       30.26S
ABINGDON*      MOSUNNY   89  67  46 S5        30.20F
$$

MDZ021>025-VAZ099-100-271900-
SOUTHERN MARYLAND AND THE DELMARVA PENINSULA

CITY           SKY/WX    TMP DP  RH WIND       PRES   REMARKS
PATUXENT RIVER MOSUNNY   87  65  47 VRB3      30.16S
BAY BRIDGE APT SUNNY     88  68  51 NE5       30.17F
LEONARDTOWN    SUNNY     86  63  45 NE6       30.18S
DOVER          SUNNY     86  70  58 E5        30.16S
GEORGETOWN     NOT AVBL
EASTON         SUNNY     90  72  55 E9        30.20S HX  96
CAMBRIDGE      SUNNY     86  63  45 E8        30.15F
SALISBURY      SUNNY     89  65  44 NE8       30.15S
OCEAN CITY     SUNNY     83  71  67 E13       30.16S
WALLOPS ISLAND SUNNY     85  60  42 NE13      30.16S
ACCOMACK*      SUNNY     89  62  40 E8        30.14F
$$

NCZ012>017-030>032-271900-
NORTH CENTRAL AND EASTERN NORTH CAROLINA

CITY           SKY/WX    TMP DP  RH WIND       PRES   REMARKS
ROANOKE RAPIDS MOCLDY    90  72  55 NE7       30.11F HX  96
RALEIGH        MOSUNNY   97  70  41 E12       30.10F HX 103
ELIZABETH CITY MOSUNNY   91  70  49 N9        30.11S HX  96
AHOSKIE*       SUNNY     90  71  53 NE9       30.11F HX  97
EDENTON*       PTSUNNY   92  70  47 E7        30.11F HX  98
CURRITUCK*       N/A     87  75  68 NE8       30.13S HX  96
KILL DEVIL HLS SUNNY     88  81  78 N7        30.10S HX 106
MANTEO         SUNNY     86  76  73 NE9       30.11S HX  96
CAPE HATTERAS  SUNNY     89  75  63 VRB6      30.10F HX  99
TARBORO*       MOCLDY    95  76  54 E3        30.11F HX 107
GOLDSBORO      MOSUNNY   96  73  47 E5        30.08F HX 105
WASHINGTON     SUNNY     91  75  58 NE9       30.10S HX 101
GREENVILLE     PTSUNNY   93  72  49 E9        30.11S HX 100
NEW BERN       MOSUNNY   92  74  55 VRB5      30.10F HX 101
WILMINGTON     SUNNY     89  73  59 E10       30.10S HX  97
$$

VAZ048-271900-
ELSEWHERE

CITY           SKY/WX    TMP DP  RH WIND       PRES   REMARKS
HARRISBURG PA  CLOUDY    87  68  52 S3        30.18S
BALTIMORE      MOSUNNY   88  66  48 E6        30.17F
ANNAPOLIS      SUNNY     89  69  51 CALM      30.17F
ANDREWS AFB    SUNNY     88  66  47 E7        30.17F
PHILADELPHIA   MOSUNNY   91  60  35 E8        30.16F
HENDERSON NC   SUNNY     89  73  59 E5        30.12F HX  97
GREENSBORO     CLOUDY    90  71  53 E8        30.14S HX  96
ROCKY MOUNT    MOSUNNY   95  73  48 E5        30.10F HX 104
$$

VAZ100-271900-
MARINE

STATION/POSITION TIME  TEMP    WIND        PRES    WAVE   SWELL
                       AIR SEA DIR/SP/G            HT/PER HT/PER
                 (UTC) (F)     (DEG/KT/KT) (MB)    (FT/S) (FT/S)
BRANDYWINE LGT   1700   80     320/  2/  3   N/A
CAPE MAY NJ      1700   82 76   80/  9/ 12 1021.1R
LEWES DE         1700   77 77   70/ 13/ 15 1021.5S
OCEAN-CITY-INLET 1700   80 78   40/  8/ 12 1021.7R
WACHAPREAGUE VA  1700   84 84   50/ 11/ 14 1020.9R
THOMAS POINT MD  1800   82 83  360/  4/  4 1023.0F
GOOSES REEF MD   1800   85 83   40/  6/  6 1022.0F   1
COVE POINT MD    1700   84      90/  2/  3 1022.0F
SOLOMONS ISLAND  1700   84 85   60/  5/  9   N/A
PINEY POINT MD   1700          130/  8/  8   N/A
POTOMAC MD       1800   84 84   50/  6/  8 1020.3F   1/ 6
CAMBRIDGE MD     1700   85 84   80/  7/  8 1020.7S
LEWISETTA VA     1700   84 84   60/  4/  6 1021.1F
RAPPAHANNOCK LGT 1700           60/ 11/ 12 1021.3R
STINGRAY PT      1700   85 84  350/ 10/ 12 1021.4S   1/ 2
YORK RVR RNG VA  1700   84      60/ 10/ 11 1020.2R
YORKTOWN VA      1700   84 84   90/ 12/ 13 1020.4R
JAMESTOWN VA     1800   90 86   90/  6/ 12   N/A     0
DOMINION TERM VA 1700   84      80/  8/ 12 1020.6R
KIPTOPEKE VA     1700      82   70/ 11/ 17   N/A
CHES BAY BRIDGE  1700   81 81   30/ 13/ 15 1020.2R
CAPE HENRY VA    1700   80      30/ 10/ 11   N/A
WILLOUBY STN VA  1700   82      60/ 10/ 11   N/A
CAPE HENRY BUOY  1712      80                N/A     3/ 8
1ST LANDING BUOY 1800   81 82   70/ 12/ 16 1020.2R   2/ 3
CAPE CHARLES BUO 1726      79                N/A     3/10
OFFSHORE WE BUOY 1721      81                N/A     3/10
64NM E OF VA BCH 1750   81 81   40/ 10/ 12 1019.4R   2/10   2/10
DUCK PIER NC     1700   80 63   10/  6/  8 1019.2S
44100 DUCK FRF   1705      80                N/A     2/ 8
44056 DUCK FRF   1711      79                N/A     2/ 9
OREGON INLET NC  1700   83 82   10/  8/ 10 1019.4S
HATTERAS NC      1700   83 83  340/  4/  5 1019.2F
DIAMOND SHLS NC  1750   82 85   20/  6/  8 1019.2F   3/10   3/10
CAPE LOOKOUT NC  1800   83      90/  9/ 10 1018.9F
$$




USA.gov is the U.S. government's official web portal to all federal, state and local government web resources and services.